Location: Brede
(50.9167°N, 0.6000°E)
Time: 19:47:44
(UTC+00:00)

Vanguard 1 Rocket - Pass Details

Date: 29 November 2020
Orbit: 655 x 4221 km, 34.3° (Epoch: 17 January)

Event Time Altitude Azimuth Distance (km) Brightness Sun altitude
Exits shadow 03:14:32 43° 203° (SSW) 4,495 10.5 -40.2°
Maximum altitude 03:18:45 46° 179° (S) 4,080 10.4 -39.5°
Drops below altitude 10° 03:32:57 10° 113° (ESE) 4,865 11.6 -37.3°
Sets 03:36:06 0° 107° (ESE) 5,478 12.1 -36.9°
